Location: Aiyekoto
(8.4333°N, 4.3667°E)
Time: 12:24:55
(UTC+00:00)

Vanguard 2 Rocket - Visible Passes

Search period start: 26 September 2020 00:00
Search period end: 06 October 2020 00:00
Orbit: 554 x 3326 km, 32.9° (Epoch: 25 September)

Date Brightness Start Highest point End Pass type
(mag) Time Alt. Az. Time Alt. Az. Time Alt. Az.
26 Sep 10.2 00:52:48 35° NE 00:52:48 35° NE 01:02:25 10° NE visible
26 Sep 9.9 02:58:36 38° NW 03:02:34 41° NNW 03:20:52 10° NE visible
26 Sep 10.4 05:09:09 10° WNW 05:25:48 30° N 05:39:32 10° NE visible
26 Sep 10.8 23:56:25 17° ENE 23:56:25 17° ENE 23:59:39 10° ENE visible
27 Sep 9.8 02:02:12 47° N 02:02:12 47° N 02:18:47 10° NE visible
27 Sep 10.4 04:08:00 15° WNW 04:22:02 32° N 04:37:41 10° NE visible
28 Sep 10.2 01:05:48 36° NNE 01:05:48 36° NNE 01:16:24 10° NE visible
28 Sep 10.1 03:11:35 29° NW 03:18:12 35° NNW 03:35:30 10° NE visible
29 Sep 10.7 00:09:23 20° NE 00:09:23 20° NE 00:13:44 10° NE visible
29 Sep 9.9 02:15:10 39° NNW 02:15:10 39° NNW 02:33:04 10° NE visible
29 Sep 10.5 04:21:21 10° NW 04:38:07 31° N 04:53:19 10° ENE visible
30 Sep 10.2 01:18:44 35° NNE 01:18:44 35° NNE 01:30:26 10° NE visible
30 Sep 10.3 03:24:31 22° NW 03:34:11 32° N 03:50:45 10° NE visible
01 Oct 10.6 00:22:17 22° NE 00:22:17 22° NE 00:27:41 10° NE visible
01 Oct 10.1 02:28:04 33° NNW 02:30:23 34° N 02:47:50 10° NE visible
01 Oct 10.5 04:36:50 10° NW 04:54:11 33° N 05:09:20 10° ENE visible
02 Oct 10.2 01:31:39 33° N 01:31:39 33° N 01:44:47 10° NE visible
02 Oct 10.4 03:37:26 17° NW 03:50:18 32° N 04:06:35 10° ENE visible
03 Oct 10.6 00:35:14 23° NE 00:35:14 23° NE 00:41:42 10° NE visible
03 Oct 10.2 02:41:01 28° NNW 02:46:24 31° N 03:03:15 10° NE visible
03 Oct 10.4 04:51:39 10° NW 05:09:56 39° NNE 05:25:22 10° E visible
04 Oct 10.2 01:44:37 31° N 01:44:37 31° N 01:59:39 10° NE visible
04 Oct 10.4 03:50:24 12° NW 04:06:18 34° NNE 04:22:44 10° ENE visible
04 Oct 9.3 20:01:09 10° SSW 20:01:20 11° SSW 20:01:20 11° SSW visible
05 Oct 10.5 00:48:15 24° NNE 00:48:15 24° NNE 00:56:04 10° NE visible
05 Oct 10.3 02:54:02 23° NNW 03:02:29 31° N 03:19:17 10° ENE visible
05 Oct 10.3 05:05:58 10° NW 05:25:17 48° NNE 05:41:04 10° E visible
05 Oct 8.7 19:03:54 10° S 19:05:21 14° SSE 19:05:21 14° SSE visible
05 Oct 10.9 23:51:54 12° NE 23:51:54 12° NE 23:52:46 10° NE visible
